EW6607 Motilla Del Palancar current weather conditions

sailwx.info

Wind from 031 at 2 knots gusting 3

Air temperature 21.7° C
Dewpoint 11.9° C

Last reported at 2018-Aug-21 23:00 UTC.
Time now 2018-Aug-21 23:19 UTC

Location: N 39°34' W 001°55'.
View on Google Maps.

See reports from other nearby stations

  
Tides and Currents Weather Stations Pressure Air Temp Water Temp Dewpoint Dewpoint Depression Visibility Wind Speed Wind Dir Waves Ship Positions
date/time (UTC)wind fromknots sea level pressurealtimeterstation pressurevisibilityair tempwater tempwave heightnotes
2018-Aug-21 23:00 031 2 gusting 3 21.7
2018-Aug-21 22:50 029 1 gusting 6 22.2
2018-Aug-21 22:40 026 2 gusting 8 22.2
2018-Aug-21 22:30 033 1 gusting 5 22.2
2018-Aug-21 22:20 069 2 gusting 4 22.2
2018-Aug-21 22:10 034 1 gusting 4 22.2
2018-Aug-21 22:00 052 1 gusting 6 22.8
2018-Aug-21 21:50 011 1 gusting 4 22.8
2018-Aug-21 21:40 071 0 gusting 3 22.8
2018-Aug-21 21:30 137 1 gusting 6 23.3
2018-Aug-21 21:20 131 3 gusting 9 23.3
2018-Aug-21 21:10 132 6 gusting 10 23.9
2018-Aug-21 21:00 132 3 gusting 9 23.9
2018-Aug-21 20:50 119 6 gusting 9 23.9
2018-Aug-21 20:40 135 6 gusting 9 23.9
2018-Aug-21 20:30 157 5 gusting 9 23.9
2018-Aug-21 20:20 312 2 gusting 6 23.3
2018-Aug-21 20:10 314 2 gusting 9 23.3
2018-Aug-21 20:00 303 4 gusting 6 23.3
2018-Aug-21 19:50 128 4 gusting 8 23.3
2018-Aug-21 19:40 001 1 gusting 8 23.9
2018-Aug-21 19:30 353 6 gusting 12 24.4
2018-Aug-21 19:20 337 7 gusting 9 24.4
2018-Aug-21 19:10 002 3 gusting 10 24.4
2018-Aug-21 19:00 029 3 gusting 14 25.0
2018-Aug-21 18:50 347 6 gusting 15 25.6
2018-Aug-21 18:40 340 8 gusting 19 25.6
2018-Aug-21 18:30 017 8 gusting 21 26.1
2018-Aug-21 18:20 013 11 gusting 19 26.7
2018-Aug-21 18:10 036 12 gusting 18 30.0
2018-Aug-21 18:00 094 1 gusting 6 30.0
2018-Aug-21 17:50 090 3 gusting 7 30.0
2018-Aug-21 17:40 090 3 gusting 8 30.0
2018-Aug-21 17:30 090 6 gusting 6 30.6
2018-Aug-21 17:20 093 2 gusting 8 30.6
2018-Aug-21 17:10 090 6 gusting 9 30.6
2018-Aug-21 17:00 099 6 gusting 13 30.6
2018-Aug-21 16:50 090 1 gusting 6 31.1
2018-Aug-21 16:40 090 2 gusting 11 30.6
2018-Aug-21 16:30 090 8 gusting 11 30.6
2018-Aug-21 16:20 090 0 gusting 9 30.6
2018-Aug-21 16:10 090 3 gusting 10 30.6
2018-Aug-21 16:00 090 2 gusting 9 30.6
2018-Aug-21 15:50 090 4 gusting 13 30.6
2018-Aug-21 15:40 090 2 gusting 6 31.1
2018-Aug-21 15:30 090 0 gusting 10 30.6
2018-Aug-21 15:20 090 6 gusting 13 30.0
2018-Aug-21 15:10 090 6 gusting 9 30.6
2018-Aug-21 15:00 077 2 gusting 10 30.6
2018-Aug-21 14:50 068 6 gusting 9 30.6
2018-Aug-21 14:40 066 4 gusting 13 30.0
2018-Aug-21 14:30 044 30.6
2018-Aug-21 14:20 045 6 gusting 13 30.6
2018-Aug-21 14:10 310 2 gusting 10 30.6
2018-Aug-21 14:00 265 1 gusting 6 30.6
2018-Aug-21 13:30 022 6 gusting 9 30.0
2018-Aug-21 13:20 046 2 gusting 13 30.0
2018-Aug-21 13:10 042 3 gusting 9 30.0
2018-Aug-21 13:00 045 3 gusting 9 29.4
2018-Aug-21 12:00 045 3 gusting 9 29.4
2018-Aug-21 11:50 039 4 gusting 8 28.9
2018-Aug-21 11:30 082 1 gusting 6 28.3
2018-Aug-21 10:50 046 3 gusting 6 27.8
2018-Aug-21 10:40 046 1 gusting 9 27.2
2018-Aug-21 10:30 045 1 gusting 9 27.2
2018-Aug-21 10:20 046 0 gusting 8 27.2
2018-Aug-21 10:10 045 5 gusting 6 27.2
2018-Aug-21 09:40 045 1 gusting 8 26.7
2018-Aug-21 09:30 041 2 gusting 8 26.7
2018-Aug-21 09:20 270 26.1
2018-Aug-21 05:50 314 3 gusting 6 15.6
2018-Aug-21 05:30 314 1 gusting 3 15.0
2018-Aug-21 05:20 314 1 gusting 3 15.0
2018-Aug-21 05:10 314 1 gusting 3 15.0
2018-Aug-21 05:00 314 1 gusting 3 15.0
2018-Aug-21 04:50 314 1 gusting 3 15.0
2018-Aug-21 04:40 314 3 gusting 3 15.0
2018-Aug-21 04:30 314 1 gusting 3 15.0
2018-Aug-21 04:20 314 1 gusting 3 15.0
2018-Aug-21 04:10 314 0 gusting 3 15.0
2018-Aug-21 04:00 314 1 gusting 3 15.0
2018-Aug-21 03:50 314 0 gusting 4 15.0
2018-Aug-21 03:40 314 2 gusting 4 15.6
2018-Aug-21 03:30 314 1 gusting 3 15.6
2018-Aug-21 03:20 314 2 gusting 3 15.6
2018-Aug-21 03:10 314 1 gusting 3 15.6
2018-Aug-21 03:00 314 2 gusting 4 15.6
2018-Aug-21 02:50 314 1 gusting 4 15.6
2018-Aug-21 02:40 314 0 gusting 4 16.1
2018-Aug-21 02:30 314 1 gusting 3 16.7
2018-Aug-21 02:20 314 1 gusting 4 16.7
2018-Aug-21 02:10 314 0 gusting 2 17.2
2018-Aug-21 02:00 314 1 gusting 3 17.8
2018-Aug-21 01:50 314 0 gusting 2 17.8
2018-Aug-21 01:40 314 17.8
2018-Aug-21 01:30 314 17.2
2018-Aug-21 01:20 314 0 gusting 4 17.8
2018-Aug-21 01:10 314 0 gusting 3 17.8
2018-Aug-21 01:00 314 17.8
2018-Aug-21 00:50 314 17.8
2018-Aug-21 00:40 306 1 gusting 2 18.3
2018-Aug-21 00:30 270 0 gusting 1 18.9
2018-Aug-21 00:20 270 18.9
2018-Aug-21 00:10 283 0 gusting 3 18.9
2018-Aug-21 00:00 314 1 gusting 3 18.9
2018-Aug-20 23:50 314 0 gusting 2 18.9
2018-Aug-20 23:40 314 1 gusting 3 19.4
2018-Aug-20 23:30 314 19.4
2018-Aug-20 23:20 248 1 gusting 3 20.0
2018-Aug-20 23:10 181 1 gusting 3 20.6
2018-Aug-20 23:00 181 21.1
2018-Aug-20 22:50 181 21.1
2018-Aug-20 22:40 181 1 gusting 3 21.1
2018-Aug-20 22:30 181 0 gusting 4 21.7
2018-Aug-20 22:20 168 1 gusting 4 22.2
2018-Aug-20 22:10 181 1 gusting 6 22.2
2018-Aug-20 22:00 181 3 gusting 6 22.8
2018-Aug-20 21:50 181 4 gusting 6 22.8
2018-Aug-20 21:40 168 5 gusting 6 22.8
2018-Aug-20 21:30 143 5 gusting 8 23.3
2018-Aug-20 21:20 158 5 gusting 7 23.3
2018-Aug-20 21:10 131 3 gusting 7 23.9
2018-Aug-20 21:00 135 4 gusting 7 23.9
2018-Aug-20 20:50 122 4 gusting 8 23.9
2018-Aug-20 20:40 125 3 gusting 7 24.4
2018-Aug-20 20:30 135 2 gusting 4 24.4
2018-Aug-20 20:20 135 1 gusting 5 25.0
2018-Aug-20 20:10 135 3 gusting 5 25.6
2018-Aug-20 20:00 135 2 gusting 4 25.6
2018-Aug-20 19:50 135 2 gusting 6 26.1
2018-Aug-20 19:40 104 4 gusting 6 26.1
2018-Aug-20 19:30 090 1 gusting 3 26.7
2018-Aug-20 19:20 090 1 gusting 3 26.7
2018-Aug-20 19:10 090 1 gusting 3 27.2
2018-Aug-20 19:00 090 1 gusting 4 27.8
2018-Aug-20 18:50 090 2 gusting 3 27.8
2018-Aug-20 18:40 090 1 gusting 4 28.3
2018-Aug-20 18:30 090 1 gusting 3 28.3
2018-Aug-20 18:20 090 1 gusting 6 28.9
2018-Aug-20 18:10 124 2 gusting 5 28.9
2018-Aug-20 18:00 135 0 gusting 4 29.4
2018-Aug-20 17:50 135 1 gusting 6 29.4
2018-Aug-20 17:40 149 1 gusting 6 29.4
2018-Aug-20 17:30 176 29.4
2018-Aug-20 17:20 182 3 gusting 9 29.4
2018-Aug-20 17:10 198 5 gusting 6 29.4
2018-Aug-20 17:00 181 3 gusting 6 30.0
2018-Aug-20 16:50 185 3 gusting 8 29.4
2018-Aug-20 16:40 187 0 gusting 8 29.4
2018-Aug-20 16:30 191 4 gusting 9 30.0
2018-Aug-20 16:20 183 30.0
2018-Aug-20 16:10 188 3 gusting 7 29.4
2018-Aug-20 16:00 181 2 gusting 7 29.4
2018-Aug-20 15:50 207 1 gusting 11 28.9
2018-Aug-20 15:40 195 4 gusting 11 29.4
2018-Aug-20 15:30 146 2 gusting 9 30.0
2018-Aug-20 15:20 181 5 gusting 9 30.0
2018-Aug-20 15:10 204 2 gusting 8 30.0
2018-Aug-20 15:00 200 30.0
2018-Aug-20 14:50 198 4 gusting 6 30.0
2018-Aug-20 14:40 183 4 gusting 8 29.4
2018-Aug-20 14:30 166 3 gusting 9 28.9
2018-Aug-20 14:20 182 6 gusting 11 29.4
2018-Aug-20 14:10 163 4 gusting 13 28.9
2018-Aug-20 14:00 131 10 gusting 14 29.4
2018-Aug-20 13:50 179 0 gusting 9 28.9
2018-Aug-20 13:40 156 3 gusting 9 28.9
2018-Aug-20 13:30 117 6 gusting 9 29.4
2018-Aug-20 13:20 139 6 gusting 12 28.9
2018-Aug-20 13:10 232 3 gusting 12 28.3
2018-Aug-20 13:00 038 2 gusting 7 28.9
2018-Aug-20 12:50 052 5 gusting 9 28.3
2018-Aug-20 12:40 044 1 gusting 9 28.3
2018-Aug-20 12:30 045 0 gusting 9 28.3
2018-Aug-20 12:20 046 6 gusting 12 28.3
2018-Aug-20 12:10 045 1 gusting 9 28.3
2018-Aug-20 12:00 045 0 gusting 8 27.8
2018-Aug-20 11:50 038 6 gusting 8 27.8
2018-Aug-20 11:40 046 2 gusting 9 27.8
2018-Aug-20 11:30 046 0 gusting 8 27.8
2018-Aug-20 11:20 043 5 gusting 8 27.8
2018-Aug-20 11:10 046 4 gusting 9 27.8
2018-Aug-20 11:00 046 3 gusting 8 27.2
2018-Aug-20 10:50 046 3 gusting 10 27.2
2018-Aug-20 10:40 046 3 gusting 8 26.7
2018-Aug-20 10:30 043 5 gusting 8 26.7
2018-Aug-20 10:20 046 4 gusting 7 26.7
2018-Aug-20 10:10 046 1 gusting 8 26.1
2018-Aug-20 10:00 045 5 gusting 9 26.1
2018-Aug-20 09:50 046 6 gusting 9 25.6
2018-Aug-20 09:40 046 1 gusting 9 25.6
2018-Aug-20 09:30 046 1 gusting 6 26.7
2018-Aug-20 09:20 116 0 gusting 6 26.1
2018-Aug-20 09:10 132 2 gusting 6 25.6
2018-Aug-20 09:00 131 4 gusting 6 25.0
2018-Aug-20 08:50 173 2 gusting 6 25.6
2018-Aug-20 08:40 173 25.0
2018-Aug-20 08:30 143 3 gusting 6 24.4
2018-Aug-20 08:20 167 0 gusting 5 23.9
2018-Aug-20 08:10 137 0 gusting 4 23.3
2018-Aug-20 08:00 028 0 gusting 6 22.8
2018-Aug-20 07:50 010 3 gusting 6 22.2
2018-Aug-20 07:40 020 4 gusting 6 21.7
2018-Aug-20 07:30 036 3 gusting 6 20.6
2018-Aug-20 07:20 045 3 gusting 7 20.0
2018-Aug-20 07:10 095 4 gusting 8 19.4
2018-Aug-20 07:00 046 4 gusting 7 18.3
2018-Aug-20 06:50 034 5 gusting 7 17.8
2018-Aug-20 06:40 010 4 gusting 7 16.7
2018-Aug-20 06:30 001 3 gusting 5 16.7
2018-Aug-20 06:20 340 3 gusting 5 16.1
2018-Aug-20 06:10 314 3 gusting 4 16.1
2018-Aug-20 06:00 314 0 gusting 2 15.6
2018-Aug-20 05:50 314 15.6
2018-Aug-20 05:40 359 0 gusting 3 14.4
2018-Aug-20 05:30 001 1 gusting 3 14.4
2018-Aug-20 05:20 014 1 gusting 3 14.4
2018-Aug-20 05:10 015 1 gusting 3 14.4
2018-Aug-20 05:00 043 0 gusting 3 14.4
2018-Aug-20 04:50 009 1 gusting 3 14.4
2018-Aug-20 04:40 045 14.4
2018-Aug-20 04:30 037 1 gusting 3 14.4
2018-Aug-20 04:20 277 0 gusting 2 15.0
2018-Aug-20 04:10 270 1 gusting 3 14.4
2018-Aug-20 04:00 270 14.4
2018-Aug-20 03:50 356 1 gusting 5 14.4
2018-Aug-20 03:40 129 3 gusting 5 14.4
2018-Aug-20 03:30 244 1 gusting 3 14.4
2018-Aug-20 03:20 236 1 gusting 1 14.4
2018-Aug-20 03:10 237 0 gusting 1 14.4
2018-Aug-20 03:00 233 0 gusting 3 14.4
2018-Aug-20 02:50 255 1 gusting 3 15.0
2018-Aug-20 02:40 258 1 gusting 3 15.0
2018-Aug-20 02:30 262 1 gusting 3 15.0
2018-Aug-20 02:20 255 1 gusting 2 15.0
2018-Aug-20 02:10 270 1 gusting 2 15.6